TimeEST,TemperatureF,Dew PointF,Humidity,Sea Level PressureIn,VisibilityMPH,Wind Direction,Wind SpeedMPH,Gust SpeedMPH,PrecipitationIn,Events,Conditions,WindDirDegrees,DateUTC
12:17 AM,30.2,21.2,69,29.99,10.0,NW,4.6,-,N/A,,Overcast,320,2013-01-01 05:17:00
12:37 AM,30.2,21.2,69,30.00,10.0,NNW,8.1,-,N/A,,Overcast,330,2013-01-01 05:37:00
12:57 AM,28.4,19.4,69,30.00,10.0,NNW,5.8,-,N/A,,Overcast,340,2013-01-01 05:57:00
1:17 AM,28.4,19.4,69,30.00,10.0,NW,6.9,-,N/A,,Overcast,310,2013-01-01 06:17:00
1:37 AM,28.4,19.4,69,30.00,10.0,NW,5.8,-,N/A,,Overcast,320,2013-01-01 06:37:00
1:57 AM,28.4,19.4,69,30.00,10.0,WNW,6.9,-,N/A,,Overcast,300,2013-01-01 06:57:00
2:17 AM,28.4,17.6,64,30.01,10.0,NW,8.1,-,N/A,,Overcast,320,2013-01-01 07:17:00
2:37 AM,26.6,19.4,74,30.02,10.0,NNW,5.8,-,N/A,,Overcast,330,2013-01-01 07:37:00
2:57 AM,26.6,19.4,74,30.02,10.0,NW,8.1,-,N/A,,Overcast,320,2013-01-01 07:57:00
3:17 AM,26.6,19.4,74,30.03,10.0,NW,9.2,-,N/A,,Overcast,320,2013-01-01 08:17:00
3:37 AM,24.8,15.8,69,30.03,10.0,NW,8.1,-,N/A,,Overcast,320,2013-01-01 08:37:00
3:57 AM,24.8,14.0,64,30.03,10.0,NW,9.2,-,N/A,,Overcast,320,2013-01-01 08:57:00
4:17 AM,23.0,12.2,63,30.03,10.0,NW,10.4,16.1,N/A,,Overcast,310,2013-01-01 09:17:00
4:37 AM,23.0,12.2,63,30.04,10.0,NW,9.2,-,N/A,,Overcast,320,2013-01-01 09:37:00
4:57 AM,23.0,12.2,63,30.04,10.0,NW,6.9,-,N/A,,Overcast,310,2013-01-01 09:57:00
5:17 AM,23.0,12.2,63,30.04,10.0,NW,4.6,-,N/A,,Overcast,320,2013-01-01 10:17:00
5:37 AM,23.0,12.2,63,30.04,10.0,NW,4.6,-,N/A,,Mostly Cloudy,320,2013-01-01 10:37:00
5:57 AM,23.0,12.2,63,30.05,10.0,NW,4.6,-,N/A,,Scattered Clouds,320,2013-01-01 10:57:00
6:17 AM,21.2,12.2,68,30.05,10.0,NW,5.8,-,N/A,,Scattered Clouds,320,2013-01-01 11:17:00
6:37 AM,21.2,10.4,63,30.05,10.0,NW,3.5,-,N/A,,Scattered Clouds,320,2013-01-01 11:37:00
6:57 AM,21.2,10.4,63,30.05,10.0,NW,3.5,-,N/A,,Clear,320,2013-01-01 11:57:00
7:17 AM,19.4,10.4,68,30.06,10.0,NW,3.5,-,N/A,,Clear,310,2013-01-01 12:17:00
7:37 AM,19.4,10.4,68,30.07,10.0,Calm,Calm,-,N/A,,Clear,0,2013-01-01 12:37:00
7:57 AM,17.6,8.6,68,30.09,10.0,WNW,3.5,-,N/A,,Mostly Cloudy,300,2013-01-01 12:57:00
8:37 AM,15.8,8.6,73,30.09,10.0,NW,3.5,-,N/A,,Scattered Clouds,310,2013-01-01 13:37:00
8:57 AM,17.6,8.6,68,30.09,10.0,NW,4.6,-,N/A,,Mostly Cloudy,310,2013-01-01 13:57:00
9:17 AM,21.2,10.4,63,30.10,10.0,NNW,5.8,-,N/A,,Overcast,330,2013-01-01 14:17:00
9:37 AM,21.2,10.4,63,30.11,10.0,NNW,5.8,-,N/A,,Overcast,340,2013-01-01 14:37:00
9:57 AM,23.0,10.4,59,30.11,10.0,NW,8.1,-,N/A,,Overcast,320,2013-01-01 14:57:00
10:17 AM,23.0,10.4,59,30.11,10.0,NW,9.2,-,N/A,,Scattered Clouds,310,2013-01-01 15:17:00
10:37 AM,23.0,8.6,54,30.11,10.0,NW,12.7,20.7,N/A,,Scattered Clouds,310,2013-01-01 15:37:00
10:57 AM,23.0,8.6,54,30.12,10.0,WNW,10.4,20.7,N/A,,Overcast,300,2013-01-01 15:57:00
11:17 AM,24.8,8.6,50,30.12,10.0,WNW,13.8,19.6,N/A,,Scattered Clouds,300,2013-01-01 16:17:00
11:37 AM,23.0,8.6,54,30.10,10.0,NW,9.2,-,N/A,,Clear,310,2013-01-01 16:37:00
11:57 AM,24.8,8.6,50,30.09,10.0,WNW,13.8,17.3,N/A,,Scattered Clouds,300,2013-01-01 16:57:00
12:17 PM,24.8,8.6,50,30.06,10.0,NW,13.8,18.4,N/A,,Scattered Clouds,310,2013-01-01 17:17:00
12:37 PM,24.8,8.6,50,30.05,10.0,NW,11.5,19.6,N/A,,Scattered Clouds,310,2013-01-01 17:37:00
12:57 PM,24.8,8.6,50,30.05,10.0,NW,6.9,-,N/A,,Scattered Clouds,320,2013-01-01 17:57:00
1:17 PM,24.8,8.6,50,30.05,10.0,NNW,9.2,16.1,N/A,,Scattered Clouds,330,2013-01-01 18:17:00
1:37 PM,24.8,10.4,54,30.05,10.0,NW,10.4,-,N/A,,Clear,320,2013-01-01 18:37:00
1:57 PM,24.8,10.4,54,30.05,10.0,NW,8.1,-,N/A,,Clear,310,2013-01-01 18:57:00
2:17 PM,24.8,10.4,54,30.05,10.0,WNW,9.2,-,N/A,,Clear,300,2013-01-01 19:17:00
2:37 PM,24.8,10.4,54,30.05,10.0,NNW,8.1,-,N/A,,Clear,330,2013-01-01 19:37:00
2:57 PM,24.8,10.4,54,30.06,10.0,NW,4.6,-,N/A,,Clear,320,2013-01-01 19:57:00
3:17 PM,23.0,8.6,54,30.07,10.0,WNW,6.9,-,N/A,,Scattered Clouds,300,2013-01-01 20:17:00
3:37 PM,23.0,8.6,54,30.07,10.0,WNW,6.9,-,N/A,,Overcast,300,2013-01-01 20:37:00
3:57 PM,24.8,10.4,54,30.06,10.0,West,4.6,-,N/A,,Overcast,280,2013-01-01 20:57:00
4:17 PM,23.0,10.4,59,30.07,10.0,West,6.9,-,N/A,,Overcast,270,2013-01-01 21:17:00
4:37 PM,23.0,12.2,63,30.08,10.0,WSW,3.5,-,N/A,,Overcast,250,2013-01-01 21:37:00
4:57 PM,23.0,12.2,63,30.08,10.0,Calm,Calm,-,N/A,,Overcast,0,2013-01-01 21:57:00
5:17 PM,23.0,10.4,59,30.08,10.0,West,3.5,-,N/A,,Overcast,260,2013-01-01 22:17:00
5:37 PM,23.0,10.4,59,30.08,10.0,Calm,Calm,-,N/A,,Overcast,0,2013-01-01 22:37:00
5:57 PM,23.0,10.4,59,30.08,10.0,West,3.5,-,N/A,,Overcast,270,2013-01-01 22:57:00
6:17 PM,23.0,10.4,59,30.07,10.0,Calm,Calm,-,N/A,,Overcast,0,2013-01-01 23:17:00
6:37 PM,21.2,10.4,63,30.07,10.0,West,3.5,-,N/A,,Overcast,270,2013-01-01 23:37:00
6:57 PM,21.2,8.6,58,30.07,10.0,WSW,3.5,-,N/A,,Overcast,250,2013-01-01 23:57:00
7:17 PM,21.2,8.6,58,30.07,10.0,WSW,3.5,-,N/A,,Overcast,250,2013-01-02 00:17:00
7:37 PM,21.2,8.6,58,30.07,10.0,Calm,Calm,-,N/A,,Mostly Cloudy,0,2013-01-02 00:37:00
7:57 PM,15.8,6.8,68,30.07,10.0,Calm,Calm,-,N/A,,Clear,0,2013-01-02 00:57:00
8:17 PM,10.4,5.0,79,30.06,10.0,SSW,3.5,-,N/A,,Clear,210,2013-01-02 01:17:00
8:37 PM,10.4,6.8,85,30.06,10.0,Calm,Calm,-,N/A,,Clear,0,2013-01-02 01:37:00
8:57 PM,8.6,6.8,92,30.06,10.0,SSW,3.5,-,N/A,,Clear,210,2013-01-02 01:57:00
9:17 PM,12.2,6.8,79,30.06,10.0,SSW,3.5,-,N/A,,Clear,210,2013-01-02 02:17:00
9:37 PM,6.8,3.2,85,30.06,10.0,SW,3.5,-,N/A,,Clear,220,2013-01-02 02:37:00
9:57 PM,6.8,5.0,92,30.05,10.0,Calm,Calm,-,N/A,,Clear,0,2013-01-02 02:57:00
10:17 PM,6.8,3.2,85,30.06,10.0,SSW,3.5,-,N/A,,Clear,210,2013-01-02 03:17:00
10:37 PM,8.6,6.8,92,30.06,10.0,SW,3.5,-,N/A,,Clear,220,2013-01-02 03:37:00
10:57 PM,10.4,6.8,85,30.06,10.0,SW,4.6,-,N/A,,Clear,220,2013-01-02 03:57:00
11:17 PM,10.4,6.8,85,30.06,10.0,SW,4.6,-,N/A,,Clear,220,2013-01-02 04:17:00
11:37 PM,8.6,5.0,85,30.06,10.0,Calm,Calm,-,N/A,,Clear,0,2013-01-02 04:37:00
11:57 PM,5.0,1.4,85,30.06,10.0,Calm,Calm,-,N/A,,Clear,0,2013-01-02 04:57:00